This demonstration page uses our WeatherBlox Daily Observations layout. Learn more.

Left ArrowRight Arrow

41.12389, -100.76542

Hourly Observations for July 16, 2016

Temp ( °F °C ) Dew Point ( °F °C ) Humidity (%) Winds ( mph kmh ) Pressure ( in mb ) Visibility ( mi km ) Precip ( " mm )
12:53 am 00:53 Clear 62 16.7 60 15.6 93 93 ESE 9 15 30.06 1018 10 16 0.00 0.00
1:53 am 01:53 Mostly Cloudy 62 16.7 60 15.6 93 93 ESE 12 19 30.06 1018 10 16 0.00 0.00
2:53 am 02:53 Cloudy 62 16.7 60 15.6 93 93 SE 8 13 30.04 1017 10 16 0.00 0.00
3:53 am 03:53 Cloudy 62 16.7 60 15.6 93 93 SSE 6 9 30.04 1017 10 16 0.00 0.00
4:36 am 04:36 Cloudy 63 17 59 15 88 88 SE 7 11 30.00 1016 10 16 0.00 0.00
4:53 am 04:53 Cloudy 62 16.7 59 15 90 90 SSE 8 13 30.01 1016 10 16 0.00 0.00
5:08 am 05:08 Cloudy 63 17 59 15 88 88 SE 7 11 30.00 1016 10 16 0.00 0.00
5:20 am 05:20 Cloudy 63 17 59 15 88 88 SE 12 19 29.94 1014 10 16 0.00 0.00
5:50 am 05:50 Mostly Cloudy 61 16 59 15 94 94 SE 8 13 30.00 1016 10 16 0.00 0.00
5:53 am 05:53 Mostly Cloudy 61 16.1 59 15 93 93 SSE 8 13 29.99 1016 10 16 0.00 0.00
6:33 am 06:33 Mostly Cloudy 61 16.1 59 15 93 93 SSE 6 9 30.00 1016 10 16 0.00 0.00
6:53 am 06:53 Cloudy 61 16.1 58 14.4 90 90 SE 8 13 29.98 1015 10 16 0.00 0.00
7:33 am 07:33 Partly Cloudy 61 16 59 15 94 94 SE 7 11 29.97 1015 10 16 0.00 0.00
7:41 am 07:41 Mostly Cloudy 62 16.7 59 15 90 90 ESE 6 9 29.97 1015 10 16 0.00 0.00
7:51 am 07:51 Partly Cloudy 63 17 59 15 88 88 SE 7 11 29.94 1014 10 16 0.00 0.00
7:53 am 07:53 Mostly Sunny 62 16.7 59 15 90 90 SE 7 11 29.96 1015 10 16 0.00 0.00
8:07 am 08:07 Mostly Cloudy 62 16.7 59 15 90 90 SSE 9 15 29.97 1015 10 16 0.00 0.00
8:15 am 08:15 Mostly Cloudy 63 17 59 15 88 88 SSE 10 17 29.94 1014 10 16 0.00 0.00
8:53 am 08:53 Cloudy 63 17.2 60 15.6 90 90 SSE 9 15 29.96 1015 10 16 0.00 0.00
9:53 am 09:53 Cloudy 66 18.9 61 16.1 84 84 SSE 12 19 29.94 1014 10 16 0.00 0.00
10:23 am 10:23 Mostly Cloudy 66 19 61 16 83 83 SSE 13 20 29.91 1013 10 16 0.00 0.00
10:51 am 10:51 Partly Cloudy 70 21 61 16 73 73 SSE 13 20 29.85 1011 10 16 0.00 0.00
10:53 am 10:53 Partly Cloudy 70 21.1 61 16.1 73 73 SSE 13 20 29.92 1013 10 16 0.00 0.00
11:53 am 11:53 Sunny 69 20.6 60 15.6 73 73 WSW 9 15 29.97 1015 10 16 0.00 0.00
12:53 pm 12:53 Mostly Cloudy 68 20 61 16.1 78 78 SSE 15 24 29.85 1011 10 16 0.00 0.00
1:53 pm 13:53 Sunny 76 24.4 62 16.7 62 62 S 18 30 29.83 1010 10 16 0.00 0.00
2:53 pm 14:53 Sunny 77 25 64 17.8 64 64 S 18 30 29.79 1009 10 16 0.00 0.00
3:53 pm 15:53 Sunny 82 27.8 64 17.8 55 55 SSE 16 26 29.80 1009 10 16 0.00 0.00
4:53 pm 16:53 Sunny 84 28.9 67 19.4 57 57 SE 10 17 29.77 1008 10 16 0.00 0.00
5:53 pm 17:53 Sunny 82 27.8 66 18.9 58 58 SE 10 17 29.76 1008 10 16 0.00 0.00
6:53 pm 18:53 Sunny 83 28.3 66 18.9 57 57 SE 9 15 29.76 1008 10 16 0.00 0.00
7:53 pm 19:53 Sunny 80 26.7 67 19.4 64 64 ESE 8 13 29.76 1008 10 16 0.00 0.00
8:53 pm 20:53 Sunny 77 25 67 19.4 71 71 SE 8 13 29.76 1008 10 16 0.00 0.00
9:53 pm 21:53 Clear 76 24.4 64 17.8 67 67 SSE 9 15 29.74 1007 10 16 0.00 0.00
10:53 pm 22:53 Clear 78 25.6 63 17.2 60 60 S 16 26 29.76 1008 10 16 0.00 0.00
11:53 pm 23:53 Clear 78 25.6 64 17.8 62 62 S 14 22 29.75 1008 10 16 0.00 0.00

Powered by AerisWeather